• Processing (Info)

  • MPEC 2002-C65 : 2000 SL

    The following Minor Planet Electronic Circular may be linked-to from your own Web pages, but must not otherwise be redistributed electronically.

    A form allowing access to any MPEC is at the bottom of this page.


    Read MPEC 2002-C64 Read MPEC 2002-C66


    M.P.E.C. 2002-C65                                Issued 2002 Feb. 11, 20:02 UT
    
         The Minor Planet Electronic Circulars contain information on unusual
             minor planets and routine data on comets.  They are published
       on behalf of Commission 20 of the International Astronomical Union by the
              Minor Planet Center, Smithsonian Astrophysical Observatory,
                              Cambridge, MA 02138, U.S.A.
    
                 Prepared using the Tamkin Foundation Computer Network
    
                                  MPC@CFA.HARVARD.EDU
              URL http://cfa-www.harvard.edu/iau/mpc.html  ISSN 1523-6714
    
                                        2000 SL
    
                               Revision to MPEC 2000-S17
    
    Observations:
         K00S00L 1C2002 02 09.76906 13 29 38.18 -48 24 28.6                      413
         K00S00L 1C2002 02 09.77135 13 29 38.44 -48 24 29.8                      413
         K00S00L 1C2002 02 09.77435 13 29 38.81 -48 24 31.1                      413
         K00S00L 1C2002 02 09.77664 13 29 39.07 -48 24 32.2                      413
         K00S00L 1C2002 02 11.73865 13 34 00.94 -48 42 17.5                      413
         K00S00L 1C2002 02 11.74130 13 34 01.35 -48 42 19.6                      413
         K00S00L 1C2002 02 11.74358 13 34 01.56 -48 42 20.7                      413
         K00S00L 1C2002 02 11.74588 13 34 01.92 -48 42 22.0                      413
    
    Observer details:
    413 Siding Spring.  Observer R. H. McNaught.  1.0-m f/8 reflector + CCD.
    
    First and last observations above in comparison with prediction:
    Residuals in seconds of arc, reference and Delta-T
    020209 413 44.1+ 14.0+    020211 413 45.8+ 14.6+    MPO  7563   -0.018 day
    
    Orbital elements:
    2000 SL
    Epoch 2001 Oct. 18.0 TT = JDT 2452200.5                 MPC
    M 238.11936              (2000.0)            P               Q
    n   0.51557939     Peri.   70.15774     +0.04432555     +0.95605948
    a   1.5403013      Node   207.84022     -0.97603627     +0.10330647
    e   0.3945357      Incl.   38.35647     +0.21304563     +0.27436843
    P   1.91           H   18.5           G   0.15           U   3
    Residuals in seconds of arc
    000917 704  1.0-  0.4-    000920 704  0.5+  0.1-    001022 046  0.2+  0.1+
    000917 704  0.7-  0.5-    000920 704  0.1+  0.1+    001022 046  0.3-  0.1-
    000917 704  0.3-  0.1+    000920 853  0.3-  0.0     001022 046  0.0   0.0
    000917 704  0.2+  0.4-    000920 853  0.3-  0.0     001022 046  0.4-  0.2-
    000918 704  0.2-  0.5+    000920 853  0.4-  0.1+    001022 046  0.1+  0.2-
    000918 704  0.3+  0.8+    000920 704  1.3+  0.2-    001023 118  0.4-  0.3-
    000918 704  0.5+  0.3-    000920 704  0.2+  0.5+    001023 118  0.3-  0.3-
    000919 848  0.4-  0.0     000920 684  0.2+  0.2+    001031 704  0.9+  1.5-
    000919 848  0.7+  0.5-    000920 684  0.2-  0.4+    001031 704  0.2-  1.2+
    000919 848  0.1-  1.3-    000920 704  0.3+  0.0     001031 704  0.0   0.5+
    000919 848  0.8-  0.1-    000926 540  0.4+  1.6-    001031 704  0.7+  0.6+
    000919 848  0.8-  0.5-    000926 540  0.6-  1.2+    001031 704  0.3-  0.0
    000919 848  0.2+  0.1+    000927 587  0.1-  0.3-    001201 413  0.8-  0.2+
    000919 848  0.2+  0.8-    000927 587  0.4+  0.7-    001201 413  0.3+  0.2-
    000919 848  0.0   0.3+    000927 587  0.4+  0.4+    001201 413  0.2-  0.1+
    000919 848  1.1+  0.1-    000927 587  0.1+  0.6-    020209 413  0.3+  0.1-
    000919 853  0.0   0.1+    000930 046  0.7+  0.4+    020209 413  0.1-  0.0
    000919 853  0.2+  0.1-    000930 046  0.0   0.4+    020209 413  0.2-  0.4+
    000919 853  0.1-  0.3+    000930 046  0.4-  0.7+    020209 413  0.5-  0.5+
    000919 557  0.3-  0.5+    000930 046  0.3+  0.2-    020211 413  0.1-  0.4+
    000919 557  0.2-  0.6+    000930 046  0.2+  0.6+    020211 413  0.5+  0.3-
    000919 557  0.3-  0.3+    001015 118  0.2-  0.3+    020211 413  0.3-  0.2-
    000919 557  0.3-  0.5+    001015 118  0.1-  0.2-    020211 413  0.3+  0.3-
    
    Ephemeris:
    2000 SL                  a,e,i = 1.54, 0.39, 38                  q = 0.9326
    Date    TT    R. A. (2000) Decl.     Delta      r     Elong.  Phase     V
    2002 02 05    13 19.24   -47 36.6    1.052    1.516    96.1    40.3    21.1
    2002 02 15    13 41.38   -49 08.9    0.912    1.460   100.3    41.7    20.8
    2002 02 25    14 05.15   -50 03.6    0.772    1.402   104.8    43.0    20.3
    2002 03 07    14 31.36   -49 59.4    0.633    1.343   109.5    44.1    19.8
    2002 03 17    15 01.16   -48 13.6    0.495    1.284   114.8    44.7    19.2
    2002 03 27    15 36.43   -43 06.1    0.364    1.225   120.8    44.4    18.4
    2002 04 06    16 20.11   -30 11.7    0.247    1.167   127.2    43.1    17.5
    2002 04 16    17 15.70   +00 21.4    0.174    1.111   124.3    48.2    16.7
    2002 04 26    18 26.06   +40 01.3    0.194    1.060   100.8    68.9    17.5
    2002 05 06    19 48.99   +60 29.2    0.281    1.014    83.2    80.9    18.6
    2002 05 16    21 13.99   +68 05.8    0.385    0.977    73.9    83.8    19.3
    2002 05 26    22 30.1    +70 32.5    0.488    0.950    68.6    82.9    19.7
    2002 06 05    23 33.9    +70 46.8    0.581    0.935    65.3    80.3    20.0
    2002 06 15    00 26.60   +69 56.5    0.661    0.933    63.6    77.1    20.1
    2002 06 25    01 10.70   +68 28.8    0.724    0.945    63.2    73.7    20.3
    2002 07 05    01 48.10   +66 36.9    0.769    0.969    64.0    70.6    20.3
    2002 07 15    02 19.71   +64 27.2    0.794    1.003    66.0    67.7    20.4
    2002 07 25    02 45.95   +62 01.1    0.800    1.046    69.2    65.2    20.4
    2002 08 04    03 07.01   +59 17.8    0.788    1.096    73.7    62.7    20.4
    2002 08 14    03 22.62   +56 13.1    0.761    1.151    79.5    59.9    20.4
    2002 08 24    03 32.36   +52 36.9    0.720    1.208    86.8    56.7    20.2
    2002 09 03    03 35.72   +48 14.5    0.670    1.267    95.9    52.4    20.1
    2002 09 13    03 32.10   +42 42.3    0.617    1.327   107.2    46.4    19.8
    2002 09 23    03 21.48   +35 31.8    0.569    1.386   121.1    38.3    19.5
    2002 10 03    03 04.82   +26 27.0    0.537    1.444   137.7    27.8    19.2
    2002 10 13    02 44.41   +15 58.0    0.534    1.501   155.9    15.8    18.9
    2002 10 23    02 23.72   +05 38.9    0.567    1.556   169.8     6.5    18.7
    2002 11 02    02 05.86   -02 49.9    0.636    1.609   161.7    11.1    19.2
    2002 11 12    01 52.69   -08 47.9    0.736    1.660   147.8    18.6    19.9
    2002 11 22    01 44.72   -12 30.5    0.859    1.709   135.3    24.0    20.5
    2002 12 02    01 41.50   -14 32.0    0.996    1.755   124.6    27.5    20.9
    2002 12 12    01 42.31   -15 23.1    1.142    1.798   115.3    29.7    21.4
    2002 12 22    01 46.40   -15 26.9    1.294    1.839   106.9    30.8    21.7
    2003 01 01    01 53.07   -14 59.3    1.448    1.878    99.4    31.1    22.0
    
    Timothy B. Spahr             (C) Copyright 2002 MPC           M.P.E.C. 2002-C65
    

    Read MPEC 2002-C64 Read MPEC 2002-C66


    MPEC number:

    Enter an MPEC number in one of the following forms:

    • 1997-B01 (the full form)
    • J97B01 (the packed version of the full form)
    • B01 (the abbreviated form)